HSNN4 Harrison NJ US current weather conditions

sailwx.info

Wind from 134 at 1 knots gusting 6

Air temperature 3.9° C
Dewpoint -2.3° C

Last reported at 2020-Jan-28 23:01 UTC.
Time now 2020-Jan-28 23:29 UTC

Location: N 40°45' W 074°09'.
View on Google Maps.

See reports from other nearby stations

  
Tides and Currents Weather Stations Pressure Air Temp Water Temp Dewpoint Dewpoint Depression Visibility Wind Speed Wind Dir Waves Ship Positions
date/time (UTC)wind fromknots sea level pressurealtimeterstation pressurevisibilityair tempwater tempwave heightnotes
2020-Jan-28 23:01 134 1 gusting 6 3.9
2020-Jan-28 22:45 125 2 gusting 5 3.9
2020-Jan-28 22:15 155 2 gusting 6 3.9
2020-Jan-28 22:00 148 2 gusting 7 3.9
2020-Jan-28 21:45 132 1 gusting 5 4.4
2020-Jan-28 21:15 122 2 gusting 6 4.4
2020-Jan-28 21:00 162 3 gusting 7 4.4
2020-Jan-28 20:45 131 1 gusting 6 4.4
2020-Jan-28 20:15 135 1 gusting 6 4.4
2020-Jan-28 20:00 130 2 gusting 9 4.4
2020-Jan-28 19:45 149 2 gusting 8 5.0
2020-Jan-28 19:15 198 3 gusting 6 5.6
2020-Jan-28 19:00 129 3 gusting 8 5.0
2020-Jan-28 18:49 139 3 gusting 7 5.6
2020-Jan-28 18:45 188 3 gusting 7 5.6
2020-Jan-28 18:17 160 4 gusting 9 5.0
2020-Jan-28 18:02 165 2 gusting 7 5.6
2020-Jan-28 18:00 163 1 gusting 8 5.6
2020-Jan-28 17:47 134 2 gusting 6 5.6
2020-Jan-28 17:45 158 1 gusting 6 5.6
2020-Jan-28 17:17 134 2 gusting 6 5.6
2020-Jan-28 17:03 213 2 gusting 6 5.6
2020-Jan-28 16:47 172 1 gusting 8 5.6
2020-Jan-28 16:17 131 1 gusting 6 5.6
2020-Jan-28 16:03 123 1 gusting 5 5.6
2020-Jan-28 15:46 127 1 gusting 7 5.0
2020-Jan-28 15:16 155 3 gusting 6 4.4
2020-Jan-28 15:02 121 1 gusting 4 4.4
2020-Jan-28 14:47 125 3 gusting 6 3.9
2020-Jan-28 14:16 134 1 gusting 6 3.3
2020-Jan-28 14:02 115 3.3
2020-Jan-28 13:46 131 0 gusting 4 2.8
2020-Jan-28 13:16 145 1 gusting 4 2.8
2020-Jan-28 13:02 145 1 gusting 6 2.8
2020-Jan-28 12:46 151 3 gusting 7 2.8
2020-Jan-28 12:16 119 2 gusting 5 2.8
2020-Jan-28 12:00 114 0 gusting 5 2.8
2020-Jan-28 11:46 179 1 gusting 6 2.8
2020-Jan-28 11:15 136 1 gusting 4 2.8
2020-Jan-28 11:01 131 0 gusting 3 2.8
2020-Jan-28 10:46 127 1 gusting 4 2.8
2020-Jan-28 10:15 120 0 gusting 4 2.8
2020-Jan-28 10:00 131 1 gusting 6 2.8
2020-Jan-28 09:45 191 1 gusting 6 2.8
2020-Jan-28 09:15 139 2 gusting 5 2.8
2020-Jan-28 09:00 134 0 gusting 5 2.8
2020-Jan-28 08:45 132 0 gusting 5 2.8
2020-Jan-28 08:15 132 2 gusting 6 2.8
2020-Jan-28 08:00 118 0 gusting 3 2.8
2020-Jan-28 07:45 119 0 gusting 2 3.3
2020-Jan-28 07:17 134 0 gusting 2 3.3
2020-Jan-28 07:01 129 1 gusting 3 3.3
2020-Jan-28 06:49 134 0 gusting 5 3.3
2020-Jan-28 06:16 154 1 gusting 6 3.3
2020-Jan-28 06:03 129 1 gusting 4 3.3
2020-Jan-28 05:46 146 1 gusting 6 3.9
2020-Jan-28 05:17 079 1 gusting 4 3.9
2020-Jan-28 05:01 146 1 gusting 5 3.9
2020-Jan-28 04:47 143 2 gusting 5 3.9
2020-Jan-28 04:16 164 2 gusting 5 3.9
2020-Jan-28 04:02 127 1 gusting 5 4.4
2020-Jan-28 03:46 132 1 gusting 6 4.4
2020-Jan-28 03:16 105 0 gusting 5 4.4
2020-Jan-28 03:01 139 2 gusting 7 5.0
2020-Jan-28 02:46 127 0 gusting 4 5.0
2020-Jan-28 02:17 128 5.0
2020-Jan-28 02:01 131 5.0
2020-Jan-28 01:46 125 0 gusting 1 5.6
2020-Jan-28 01:17 125 0 gusting 3 5.6
2020-Jan-28 01:01 169 1 gusting 6 5.6
2020-Jan-28 00:45 131 0 gusting 4 5.6
2020-Jan-28 00:16 158 1 gusting 4 5.6
2020-Jan-28 00:01 134 1 gusting 4 5.6
2020-Jan-27 23:45 132 0 gusting 3 5.6
2020-Jan-27 23:16 127 5.6
2020-Jan-27 23:01 143 5.6
2020-Jan-27 22:46 136 2 gusting 4 5.6
2020-Jan-27 22:17 122 2 gusting 5 6.1
2020-Jan-27 22:01 132 1 gusting 6 6.1
2020-Jan-27 21:46 128 2 gusting 6 6.1
2020-Jan-27 21:15 162 2 gusting 6 6.7
2020-Jan-27 21:00 172 1 gusting 6 6.7
2020-Jan-27 20:45 170 2 gusting 6 6.7
2020-Jan-27 20:15 123 1 gusting 5 6.7
2020-Jan-27 20:00 134 1 gusting 6 6.7
2020-Jan-27 19:45 151 1 gusting 8 6.7
2020-Jan-27 19:15 134 0 gusting 5 6.7
2020-Jan-27 19:00 274 1 gusting 6 6.1
2020-Jan-27 18:46 050 1 gusting 5 5.6
2020-Jan-27 18:16 297 2 gusting 6 5.6
2020-Jan-27 18:01 046 1 gusting 5 5.6
2020-Jan-27 17:46 328 1 gusting 4 5.6
2020-Jan-27 17:15 020 1 gusting 6 5.6
2020-Jan-27 17:00 310 2 gusting 6 5.6
2020-Jan-27 16:46 039 2 gusting 5 5.6
2020-Jan-27 16:15 030 1 gusting 5 5.6
2020-Jan-27 16:00 046 2 gusting 6 5.6
2020-Jan-27 15:45 149 1 gusting 5 5.6
2020-Jan-27 15:17 287 1 gusting 6 4.4
2020-Jan-27 15:02 080 0 gusting 4 4.4
2020-Jan-27 14:47 039 2 gusting 7 3.9
2020-Jan-27 14:18 068 0 gusting 6 3.3
2020-Jan-27 14:03 046 1 gusting 7 3.3
2020-Jan-27 13:46 022 2 gusting 7 3.3
2020-Jan-27 13:16 015 1 gusting 5 2.8
2020-Jan-27 13:02 063 1 gusting 4 2.8
2020-Jan-27 12:46 047 2 gusting 5 2.2
2020-Jan-27 12:18 082 2 gusting 5 2.2
2020-Jan-27 12:02 053 2 gusting 5 2.2
2020-Jan-27 11:46 070 1 gusting 4 2.2
2020-Jan-27 11:19 065 1 gusting 5 2.2
2020-Jan-27 11:02 042 0 gusting 4 2.2
2020-Jan-27 10:46 060 1 gusting 4 2.2
2020-Jan-27 10:17 060 1 gusting 4 2.2
2020-Jan-27 10:01 046 1 gusting 3 2.2
2020-Jan-27 09:47 058 1 gusting 3 2.2
2020-Jan-27 09:17 068 1 gusting 5 2.2
2020-Jan-27 09:02 065 0 gusting 3 2.2
2020-Jan-27 08:46 041 1 gusting 5 2.2
2020-Jan-27 08:16 148 1 gusting 5 2.2
2020-Jan-27 08:00 063 2 gusting 5 2.2
2020-Jan-27 07:46 061 0 gusting 6 2.2
2020-Jan-27 07:16 046 0 gusting 6 2.2
2020-Jan-27 07:01 089 2.2
2020-Jan-27 06:46 069 0 gusting 3 2.2
2020-Jan-27 06:15 079 1 gusting 3 2.2
2020-Jan-27 06:00 080 0 gusting 6 2.2
2020-Jan-27 05:45 077 0 gusting 4 2.8
2020-Jan-27 05:15 061 0 gusting 4 2.8
2020-Jan-27 05:00 295 1 gusting 3 2.8
2020-Jan-27 04:45 134 2.8
2020-Jan-27 04:15 129 0 gusting 3 2.8
2020-Jan-27 04:00 191 0 gusting 4 2.8
2020-Jan-27 03:45 122 1 gusting 5 3.3
2020-Jan-27 03:15 117 1 gusting 5 3.3
2020-Jan-27 03:00 018 0 gusting 3 3.3
2020-Jan-27 02:49 056 0 gusting 3 3.3
2020-Jan-27 02:32 030 0 gusting 4 3.3
2020-Jan-27 02:15 061 3.9
2020-Jan-27 02:00 137 0 gusting 5 3.9
2020-Jan-27 01:47 123 0 gusting 5 3.9
2020-Jan-27 01:31 033 0 gusting 5 3.9
2020-Jan-27 01:17 020 0 gusting 5 4.4
2020-Jan-27 01:02 027 1 gusting 5 4.4
2020-Jan-27 00:47 055 0 gusting 4 4.4
2020-Jan-27 00:32 134 0 gusting 3 4.4
2020-Jan-27 00:17 296 5.0
2020-Jan-27 00:02 155 0 gusting 3 5.0
2020-Jan-26 23:47 181 1 gusting 5 5.6
2020-Jan-26 23:33 110 5.6
2020-Jan-26 23:17 151 0 gusting 3 6.1
2020-Jan-26 23:02 132 0 gusting 4 6.1